Tracking 18630 objects as of 25-May-2017
HD Live streaming from Space Station
objects crossing your sky now

FTV 3502

Track FTV 3502 now!
10-day predictions
FTV 3502 is classified as:


NORAD ID: 369
Int'l Code: 1962-039A
Perigee: 561.0 km
Apogee: 690.7 km
Inclination: 98.5 °
Period: 97.1 minutes
Semi major axis: 6996 km
RCS: 0.3492 m2 (medium)
Launch date: August 23, 1962
Source: United States (US)
Launch site: AIR FORCE WESTERN TEST RANGE (AFWTR)
Your satellite tracking list
Your tracking list is empty





NASA's NSSDC Master Catalog

Two Line Element Set (TLE):
1   369U 62039A   17144.91372894 +.00000119 +00000-0 +21312-4 0  9992
2   369 098.5444 317.6993 0092705 352.3288 007.6500 14.83367025924097
Source of the keplerian elements: AFSPC